星链-5009 (STARLINK-5009 )

导读

STARLINK-5009是美国SpaceX星链项目的低轨通信卫星,属于第二代星链v1.5批次,2022年9月24日由美国发射入轨。它运行在近地轨道,配备星间激光链路和相控阵通信天线,依托氪离子推进器完成轨道维持与自主避碰,为全球提供低延迟高速宽带互联网服务,是星链全球卫星星座组网的重要组成部分,拓展了偏远地区、移动场景的网络覆盖能力。

Basic Information
目录编号:
53928
目录名称:
STARLINK-5009
国际标识:
2022-119AU
轨道中心:
EARTH
卫星名称:
星链-5009
卫星全名:
星链-5009 (STARLINK-5009 )
卫星状态:
在轨 (已飞行1362 天)
发射日期:
2022-09-24 UTC
国别 :
美国 (US)
星等 :
--
Orbit Information
数据来源 国际轨道数据 AOE轨道数据
星历时间 2026-06-17T03:57:17+0800
12小时前
查看轨道信息
2026-06-15T05:00:00+0800
2天前
查看轨道信息
半长轴 6917.909km 6917.902km
偏心率 0.0001244 0.0001181
轨道倾角 53.160° 53.157°
近地点辐角 88.158° 70.483°
升交点赤经 218.861° 227.657°
平近点角 271.955° 96.809°
近地点 538.911km 538.947km
远地点 540.633km 540.583km
周期 95.438分钟 95.438分钟
每日圈数 15.088307 15.088332
Detailed Information
固有亮度:
5
最大亮度:
2.5
卫星平台:
Starlink v1.5
覆盖范围:
全球
运营商:
太空探索技术公司
运营商所在国:
美国
制造商(研发单位):
太空探索技术公司
制造商所在国:
美国
使用方式:
暂无
Satellite Introduction
星链(Starlink)计划是由太空探索技术公司(SpaceX)提出的一个巨型低轨卫星互联网星座项目,计划在2019年至2024年间在太空搭建由约1.2万颗卫星组成的“星链”网络,其中1584颗将部署在地球上空550千米处的近地轨道,并从2020年开始工作。该卫星仍在工作。
2D Orbit Map
3D Orbit Map
Orbit Altitude Analysis Chart
Orbit Inclination Analysis Chart
Orbit Comprehensive Analysis Chart
View Comprehensive Chart